Time[GMT],temperature[C](50m),salinity[psu](50m),sigma_t[kg/m^3](50m),conductivity[msiemens/cm](50m)
2002-10-02 21:00,10.17,32.878,25.267,36.181
2002-10-02 22:00,10.28,32.888,25.257,36.290
2002-10-02 23:00,10.57,32.895,25.213,36.558
2002-10-03 00:00,10.64,32.930,25.228,36.656
2002-10-03 01:00,10.14,32.892,25.283,36.168
2002-10-03 02:00,10.11,32.893,25.289,36.142
2002-10-03 03:00,10.15,32.949,25.326,36.233
2002-10-03 04:00,10.07,32.939,25.331,36.151
2002-10-03 05:00,10.05,32.945,25.339,36.139
2002-10-03 06:00,9.87,32.923,25.352,35.956
2002-10-03 07:00,9.70,32.913,25.372,35.794
2002-10-03 08:00,9.88,32.918,25.347,35.960
2002-10-03 09:00,10.32,33.004,25.340,36.441
2002-10-03 10:00,10.56,32.984,25.283,36.637
2002-10-03 11:00,10.65,32.888,25.193,36.623
2002-10-03 12:00,10.75,32.912,25.194,36.737
2002-10-03 13:00,10.65,32.950,25.241,36.685
2002-10-03 14:00,10.29,32.912,25.273,36.322
2002-10-03 15:00,10.07,32.897,25.299,36.110
2002-10-03 16:00,9.82,32.909,25.350,35.898
2002-10-03 17:00,9.85,32.916,25.350,35.931
2002-10-03 18:00,9.72,32.917,25.372,35.816
2002-10-03 19:00,9.88,32.932,25.358,35.974
2002-10-03 20:00,10.13,32.938,25.320,36.204
2002-10-03 21:00,10.01,32.878,25.294,36.037
2002-10-03 22:00,9.93,32.727,25.189,35.817
2002-10-03 23:00,9.83,32.785,25.251,35.785
2002-10-04 00:00,9.98,32.791,25.231,35.925
2002-10-04 01:00,10.32,32.829,25.204,36.267
2002-10-04 02:00,10.20,32.882,25.265,36.212
2002-10-04 03:00,10.10,32.886,25.285,36.126
2002-10-04 04:00,9.91,32.875,25.308,35.945
2002-10-04 05:00,9.99,32.901,25.315,36.042
2002-10-04 06:00,10.08,32.918,25.314,36.140
2002-10-04 07:00,10.17,32.921,25.301,36.224
2002-10-04 08:00,10.35,32.920,25.269,36.384
2002-10-04 09:00,10.32,32.870,25.236,36.308
2002-10-04 10:00,10.14,32.879,25.273,36.155
2002-10-04 11:00,10.26,32.949,25.307,36.332
2002-10-04 12:00,10.11,32.789,25.208,36.039
2002-10-04 13:00,10.43,32.920,25.255,36.456
2002-10-04 14:00,10.43,32.914,25.251,36.450
2002-10-04 15:00,10.22,32.851,25.238,36.199
2002-10-04 16:00,10.28,32.917,25.279,36.318
2002-10-04 17:00,10.11,32.900,25.295,36.149
2002-10-04 18:00,10.21,32.890,25.270,36.229
2002-10-04 19:00,10.19,32.895,25.277,36.216
2002-10-04 20:00,10.21,32.900,25.278,36.239
2002-10-04 21:00,10.18,32.864,25.255,36.176
2002-10-04 22:00,10.22,32.905,25.280,36.253
2002-10-04 23:00,9.97,32.872,25.296,35.996
2002-10-05 00:00,10.23,32.840,25.227,36.197
2002-10-05 01:00,10.24,32.824,25.213,36.190
2002-10-05 02:00,10.36,32.826,25.195,36.300
2002-10-05 03:00,10.27,32.847,25.226,36.240
2002-10-05 04:00,10.13,32.844,25.247,36.111
2002-10-05 05:00,10.17,32.841,25.238,36.144
2002-10-05 06:00,10.14,32.856,25.255,36.132
2002-10-05 07:00,10.05,32.867,25.278,36.062
2002-10-05 08:00,10.08,32.876,25.281,36.098
2002-10-05 09:00,10.00,32.886,25.302,36.036
2002-10-05 10:00,10.21,32.886,25.267,36.225
2002-10-05 11:00,10.25,32.863,25.242,36.238
2002-10-05 12:00,10.29,32.855,25.229,36.266
2002-10-05 13:00,10.30,32.852,25.225,36.272
2002-10-05 14:00,10.42,32.824,25.183,36.352
2002-10-05 15:00,10.56,32.831,25.164,36.485
2002-10-05 16:00,10.33,32.843,25.213,36.290
2002-10-05 17:00,9.74,32.874,25.336,35.792
2002-10-05 18:00,9.69,32.905,25.368,35.777
2002-10-05 19:00,9.69,32.907,25.369,35.779
2002-10-05 20:00,9.62,32.913,25.386,35.723
2002-10-05 21:00,9.68,32.910,25.373,35.773
2002-10-05 22:00,9.62,32.908,25.382,35.718
2002-10-05 23:00,9.65,32.919,25.385,35.755
2002-10-06 00:00,10.52,33.002,25.304,36.619
2002-10-06 01:00,10.66,32.921,25.217,36.665
2002-10-06 02:00,10.62,32.869,25.184,36.577
2002-10-06 03:00,10.59,32.881,25.198,36.562
2002-10-06 04:00,10.52,32.902,25.227,36.520
2002-10-06 05:00,10.17,32.860,25.253,36.163
2002-10-06 06:00,9.93,32.916,25.337,36.003
2002-10-06 07:00,9.78,32.907,25.355,35.860
2002-10-06 08:00,9.66,32.916,25.381,35.761
2002-10-06 09:00,9.72,32.916,25.372,35.815
2002-10-06 10:00,9.66,32.923,25.387,35.768
2002-10-06 11:00,9.65,32.914,25.381,35.750
2002-10-06 12:00,10.41,32.985,25.310,36.503
2002-10-06 13:00,10.25,32.945,25.306,36.319
2002-10-06 14:00,10.15,32.779,25.193,36.065
2002-10-06 15:00,10.12,32.777,25.197,36.036
2002-10-06 16:00,10.55,32.899,25.219,36.544
2002-10-06 17:00,10.53,32.882,25.209,36.509
2002-10-06 18:00,10.47,32.951,25.273,36.523
2002-10-06 19:00,10.25,32.926,25.291,36.300
2002-10-06 20:00,10.38,32.881,25.234,36.373
2002-10-06 21:00,9.94,32.913,25.333,36.009
2002-10-06 22:00,9.95,32.890,25.313,35.995
2002-10-06 23:00,10.50,32.774,25.130,36.374
2002-10-07 00:00,10.45,32.791,25.152,36.346
2002-10-07 01:00,10.23,32.785,25.185,36.143
2002-10-07 02:00,10.19,32.809,25.210,36.131
2002-10-07 03:00,10.09,32.891,25.291,36.122
2002-10-07 04:00,10.13,32.924,25.310,36.191
2002-10-07 05:00,9.88,32.907,25.338,35.949
2002-10-07 06:00,9.95,32.898,25.319,36.003
2002-10-07 07:00,9.81,32.912,25.354,35.892
2002-10-07 08:00,9.99,32.872,25.293,36.014
2002-10-07 09:00,10.12,32.887,25.283,36.145
2002-10-07 10:00,10.37,32.875,25.231,36.358
2002-10-07 11:00,10.33,32.881,25.243,36.328
2002-10-07 12:00,10.10,32.829,25.241,36.070
2002-10-07 13:00,10.22,32.806,25.203,36.155
2002-10-07 14:00,10.61,32.674,25.034,36.373
2002-10-07 15:00,10.50,32.775,25.131,36.375
2002-10-07 16:00,10.52,32.810,25.155,36.428
2002-10-07 17:00,10.36,32.845,25.209,36.319
2002-10-07 18:00,9.92,32.916,25.339,35.994
2002-10-07 19:00,10.01,32.893,25.306,36.052
2002-10-07 20:00,9.85,32.921,25.354,35.936
2002-10-07 21:00,9.79,32.925,25.367,35.886
2002-10-07 22:00,9.81,32.918,25.359,35.898
2002-10-07 23:00,9.95,32.925,25.341,36.030
2002-10-08 00:00,10.01,32.912,25.321,36.071
2002-10-08 01:00,10.11,32.874,25.274,36.123
2002-10-08 02:00,10.17,32.817,25.220,36.121
2002-10-08 03:00,10.39,32.787,25.159,36.288
2002-10-08 04:00,10.62,32.796,25.127,36.504
2002-10-08 05:00,10.53,32.822,25.163,36.449
2002-10-08 06:00,10.51,32.856,25.192,36.465
2002-10-08 07:00,10.15,32.884,25.275,36.169
2002-10-08 08:00,10.00,32.891,25.306,36.041
2002-10-08 09:00,9.92,32.911,25.335,35.989
2002-10-08 10:00,9.99,32.909,25.322,36.050
2002-10-08 11:00,9.71,32.916,25.373,35.806
2002-10-08 12:00,9.79,32.911,25.356,35.873
2002-10-08 13:00,10.20,32.846,25.237,36.176
2002-10-08 14:00,10.38,32.826,25.191,36.318
2002-10-08 15:00,10.19,32.863,25.252,36.184
2002-10-08 16:00,10.30,32.837,25.213,36.257
2002-10-08 17:00,10.69,32.760,25.086,36.530
2002-10-08 18:00,10.63,32.841,25.160,36.558
2002-10-08 19:00,10.31,32.869,25.237,36.298
2002-10-08 20:00,10.07,32.876,25.282,36.089
2002-10-08 21:00,10.22,32.876,25.257,36.224
2002-10-08 22:00,9.81,32.915,25.356,35.895
2002-10-08 23:00,9.94,32.892,25.316,35.988
2002-10-09 00:00,9.98,32.862,25.287,35.995
2002-10-09 01:00,10.36,32.834,25.201,36.308
2002-10-09 02:00,10.49,32.779,25.136,36.370
2002-10-09 03:00,10.51,32.683,25.057,36.292
2002-10-09 04:00,10.41,32.708,25.094,36.227
2002-10-09 05:00,10.39,32.726,25.111,36.227
2002-10-09 06:00,9.99,32.876,25.296,36.018
2002-10-09 07:00,10.10,32.859,25.264,36.099
2002-10-09 08:00,9.98,32.883,25.303,36.015
2002-10-09 09:00,9.83,32.903,25.344,35.901
2002-10-09 10:00,9.80,32.904,25.349,35.875
2002-10-09 11:00,9.98,32.873,25.295,36.006
2002-10-09 12:00,9.97,32.865,25.291,35.989
2002-10-09 13:00,10.19,32.802,25.205,36.124
2002-10-09 14:00,10.24,32.777,25.177,36.144
2002-10-09 15:00,10.40,32.701,25.090,36.211
2002-10-09 16:00,10.42,32.667,25.060,36.195
2002-10-09 17:00,10.35,32.748,25.135,36.213
2002-10-09 18:00,10.32,32.758,25.148,36.196
2002-10-09 19:00,10.43,32.745,25.119,36.282
2002-10-09 20:00,10.36,32.796,25.171,36.270
2002-10-09 21:00,10.31,32.820,25.198,36.249
2002-10-09 22:00,10.31,32.831,25.207,36.260
2002-10-09 23:00,9.97,32.858,25.285,35.982
2002-10-10 00:00,10.33,32.806,25.184,36.253
2002-10-10 01:00,10.38,32.803,25.173,36.295
2002-10-10 02:00,10.50,32.782,25.136,36.382
2002-10-10 03:00,10.53,32.733,25.093,36.360
2002-10-10 04:00,10.53,32.741,25.099,36.368
2002-10-10 05:00,10.50,32.749,25.111,36.349
2002-10-10 06:00,10.53,32.755,25.110,36.382
2002-10-10 07:00,10.43,32.777,25.144,36.314
2002-10-10 08:00,10.37,32.777,25.154,36.260
2002-10-10 09:00,10.23,32.827,25.217,36.184
2002-10-10 10:00,10.21,32.824,25.218,36.163
2002-10-10 11:00,10.26,32.809,25.198,36.193
2002-10-10 12:00,10.16,32.826,25.229,36.121
2002-10-10 13:00,10.30,32.804,25.187,36.224
2002-10-10 14:00,10.42,32.771,25.141,36.299
2002-10-10 15:00,10.49,32.762,25.122,36.353
2002-10-10 16:00,10.50,32.763,25.122,36.363
2002-10-10 17:00,10.68,32.724,25.060,36.485
2002-10-10 18:00,10.51,32.735,25.098,36.344
2002-10-10 19:00,10.62,32.736,25.080,36.444
2002-10-10 20:00,10.58,32.739,25.089,36.411
2002-10-10 21:00,10.50,32.776,25.132,36.376
2002-10-10 22:00,10.38,32.775,25.151,36.267
2002-10-10 23:00,10.29,32.818,25.200,36.229
2002-10-11 00:00,10.02,32.856,25.275,36.025
2002-10-11 01:00,10.02,32.850,25.271,36.019
2002-10-11 02:00,10.14,32.828,25.234,36.105
2002-10-11 03:00,10.35,32.813,25.186,36.278
2002-10-11 04:00,10.33,32.783,25.166,36.230
2002-10-11 05:00,10.49,32.737,25.103,36.328
2002-10-11 06:00,10.74,32.706,25.035,36.521
2002-10-11 07:00,10.70,32.717,25.051,36.496
2002-10-11 08:00,10.61,32.734,25.080,36.433
2002-10-11 09:00,10.53,32.758,25.113,36.385
2002-10-11 10:00,10.39,32.786,25.158,36.287
2002-10-11 11:00,10.16,32.835,25.235,36.129
2002-10-11 12:00,10.05,32.848,25.264,36.044
2002-10-11 13:00,9.82,32.897,25.340,35.886
2002-10-11 14:00,9.97,32.860,25.287,35.984
2002-10-11 15:00,10.12,32.833,25.241,36.092
2002-10-11 16:00,10.30,32.802,25.186,36.222
2002-10-11 17:00,10.55,32.746,25.100,36.391
2002-10-11 18:00,10.65,32.731,25.070,36.465
2002-10-11 19:00,10.61,32.731,25.078,36.430
2002-10-11 20:00,10.56,32.741,25.094,36.395
2002-10-11 21:00,10.57,32.744,25.095,36.407
2002-10-11 22:00,10.52,32.743,25.103,36.361
2002-10-11 23:00,10.50,32.754,25.115,36.354
2002-10-12 00:00,10.31,32.798,25.181,36.227
2002-10-12 01:00,10.11,32.828,25.239,36.078
2002-10-12 02:00,10.09,32.838,25.250,36.070
2002-10-12 03:00,10.20,32.818,25.215,36.148
2002-10-12 04:00,10.41,32.772,25.144,36.291
2002-10-12 05:00,10.51,32.739,25.101,36.348
2002-10-12 06:00,10.75,32.680,25.014,36.504
2002-10-12 07:00,10.81,32.697,25.016,36.575
2002-10-12 08:00,10.73,32.718,25.046,36.524
2002-10-12 09:00,10.73,32.724,25.051,36.530
2002-10-12 10:00,10.59,32.730,25.081,36.411
2002-10-12 11:00,10.59,32.740,25.088,36.421
2002-10-12 12:00,10.50,32.748,25.110,36.348
2002-10-12 13:00,10.52,32.741,25.101,36.359
2002-10-12 14:00,10.13,32.826,25.234,36.094
2002-10-12 15:00,10.55,32.747,25.101,36.392
2002-10-12 16:00,10.63,32.724,25.069,36.441
2002-10-12 17:00,10.77,32.708,25.032,36.550
2002-10-12 18:00,10.94,32.693,24.991,36.688
2002-10-12 19:00,10.89,32.668,24.980,36.618
2002-10-12 20:00,11.02,32.659,24.950,36.725
2002-10-12 21:00,10.96,32.686,24.982,36.699
2002-10-12 22:00,10.95,32.712,25.004,36.716
2002-10-12 23:00,10.70,32.714,25.049,36.493
2002-10-13 00:00,10.85,32.725,25.031,36.639
2002-10-13 01:00,10.91,32.706,25.006,36.674
2002-10-13 02:00,10.80,32.697,25.018,36.566
2002-10-13 03:00,10.80,32.687,25.010,36.556
2002-10-13 04:00,10.98,32.668,24.964,36.698
2002-10-13 05:00,11.01,32.649,24.944,36.706
2002-10-13 06:00,11.16,32.663,24.928,36.855
2002-10-13 07:00,11.39,32.635,24.865,37.034
2002-10-13 08:00,11.49,32.625,24.840,37.114
2002-10-13 09:00,11.24,32.602,24.866,36.865
2002-10-13 10:00,11.28,32.642,24.890,36.942
2002-10-13 11:00,11.17,32.642,24.910,36.843
2002-10-13 12:00,10.78,32.690,25.016,36.541
2002-10-13 13:00,10.85,32.659,24.980,36.573
2002-10-13 14:00,10.95,32.700,24.994,36.704
2002-10-13 15:00,11.03,32.695,24.976,36.771
2002-10-13 16:00,11.20,32.655,24.915,36.883
2002-10-13 17:00,11.38,32.633,24.866,37.023
2002-10-13 18:00,11.55,32.608,24.815,37.150
2002-10-13 19:00,11.68,32.612,24.795,37.272
2002-10-13 20:00,11.62,32.622,24.813,37.228
2002-10-13 21:00,11.65,32.617,24.804,37.250
2002-10-13 22:00,11.35,32.617,24.858,36.979
2002-10-13 23:00,11.05,32.661,24.946,36.754
2002-10-14 00:00,10.96,32.685,24.981,36.698
2002-10-14 01:00,10.92,32.717,25.013,36.694
2002-10-14 02:00,10.86,32.719,25.025,36.642
2002-10-14 03:00,10.86,32.709,25.017,36.632
2002-10-14 04:00,10.92,32.706,25.004,36.683
2002-10-14 05:00,10.94,32.710,25.004,36.705
2002-10-14 06:00,11.02,32.662,24.952,36.728
2002-10-14 07:00,11.06,32.672,24.953,36.774
2002-10-14 08:00,11.00,32.667,24.959,36.715
2002-10-14 09:00,11.06,32.646,24.933,36.748
2002-10-14 10:00,11.22,32.688,24.937,36.935
2002-10-14 11:00,11.22,32.689,24.938,36.936
2002-10-14 12:00,11.34,32.757,24.969,37.113
2002-10-14 13:00,10.85,32.761,25.059,36.675
2002-10-14 14:00,10.91,32.772,25.057,36.740
2002-10-14 15:00,10.76,32.748,25.065,36.581
2002-10-14 16:00,10.58,32.771,25.114,36.443
2002-10-14 17:00,10.75,32.792,25.101,36.617
2002-10-14 18:00,10.98,32.679,24.973,36.710
2002-10-14 19:00,11.38,32.678,24.901,37.069
2002-10-14 20:00,11.39,32.662,24.886,37.061
2002-10-14 21:00,11.37,32.658,24.886,37.039
2002-10-14 22:00,11.20,32.685,24.938,36.914
2002-10-14 23:00,11.33,32.662,24.897,37.007
2002-10-15 00:00,11.15,32.731,24.983,36.915
2002-10-15 01:00,11.07,32.748,25.010,36.860
2002-10-15 02:00,11.11,32.737,24.994,36.885
2002-10-15 03:00,10.76,32.788,25.096,36.622
2002-10-15 04:00,11.04,32.754,25.020,36.839
2002-10-15 05:00,11.07,32.727,24.994,36.839
2002-10-15 06:00,10.89,32.731,25.029,36.681
2002-10-15 07:00,11.18,32.683,24.941,36.894
2002-10-15 08:00,11.16,32.659,24.925,36.851
2002-10-15 09:00,11.16,32.652,24.920,36.844
2002-10-15 10:00,11.10,32.612,24.899,36.750
2002-10-15 11:00,11.07,32.675,24.953,36.786
2002-10-15 12:00,10.75,32.742,25.062,36.566
2002-10-15 13:00,10.83,32.710,25.023,36.606
2002-10-15 14:00,10.71,32.721,25.052,36.509
2002-10-15 15:00,10.60,32.769,25.109,36.459
2002-10-15 16:00,10.55,32.790,25.134,36.435
2002-10-15 17:00,11.02,32.675,24.963,36.742
2002-10-15 18:00,11.05,32.660,24.945,36.753
2002-10-15 19:00,10.94,32.707,25.001,36.702
2002-10-15 20:00,10.98,32.704,24.992,36.735
2002-10-15 21:00,11.15,32.636,24.909,36.819
2002-10-15 22:00,10.97,32.645,24.948,36.666
2002-10-15 23:00,10.79,32.710,25.030,36.570
2002-10-16 00:00,10.84,32.722,25.031,36.627
2002-10-16 01:00,10.79,32.738,25.052,36.598
2002-10-16 02:00,10.76,32.715,25.039,36.548
2002-10-16 03:00,10.62,32.749,25.090,36.457
2002-10-16 04:00,10.48,32.789,25.145,36.371
2002-10-16 05:00,10.69,32.751,25.079,36.521
2002-10-16 06:00,10.60,32.769,25.109,36.459
2002-10-16 07:00,10.61,32.759,25.100,36.458
2002-10-16 08:00,10.65,32.751,25.087,36.486
2002-10-16 09:00,11.04,32.692,24.972,36.777
2002-10-16 10:00,10.90,32.732,25.028,36.691
2002-10-16 11:00,11.21,32.738,24.977,36.976
2002-10-16 12:00,10.89,32.726,25.025,36.676
2002-10-16 13:00,10.99,32.764,25.037,36.804
2002-10-16 14:00,11.14,32.753,25.001,36.928
2002-10-16 15:00,11.09,32.771,25.025,36.902
2002-10-16 16:00,10.82,32.739,25.047,36.626
2002-10-16 17:00,10.75,32.744,25.063,36.568
2002-10-16 18:00,10.67,32.730,25.066,36.482
2002-10-16 19:00,11.37,32.768,24.972,37.151
2002-10-16 20:00,11.70,32.758,24.905,37.440
2002-10-16 21:00,11.88,32.673,24.805,37.515
2002-10-16 22:00,12.02,32.543,24.678,37.507
2002-10-16 23:00,12.68,32.454,24.484,38.011
2002-10-17 00:00,12.91,32.431,24.421,38.195
2002-10-17 01:00,12.63,32.487,24.520,38.001
2002-10-17 02:00,12.70,32.435,24.465,38.009
2002-10-17 03:00,12.36,32.516,24.594,37.787
2002-10-17 04:00,11.96,32.577,24.715,37.488
2002-10-17 05:00,12.06,32.640,24.746,37.644
2002-10-17 06:00,11.91,32.691,24.814,37.561
2002-10-17 07:00,11.85,32.718,24.845,37.534
2002-10-17 08:00,11.88,32.705,24.830,37.548
2002-10-17 09:00,11.72,32.704,24.858,37.402
2002-10-17 10:00,11.75,32.655,24.815,37.379
2002-10-17 11:00,11.77,32.747,24.883,37.492
2002-10-17 12:00,11.69,32.796,24.936,37.470
2002-10-17 13:00,11.47,32.793,24.973,37.267
2002-10-17 14:00,11.41,32.808,24.996,37.228
2002-10-17 15:00,11.44,32.818,24.999,37.266
2002-10-17 16:00,11.21,32.836,25.054,37.076
2002-10-17 17:00,10.99,32.832,25.090,36.873
2002-10-17 18:00,11.55,32.793,24.959,37.340
2002-10-17 19:00,11.92,32.700,24.818,37.579
2002-10-17 20:00,12.08,32.597,24.709,37.618
2002-10-17 21:00,12.57,32.508,24.547,37.968
2002-10-17 22:00,12.69,32.497,24.515,38.065
2002-10-17 23:00,12.79,32.468,24.473,38.125
2002-10-18 00:00,12.66,32.488,24.514,38.029
2002-10-18 01:00,12.35,32.452,24.546,37.711
2002-10-18 02:00,11.79,32.705,24.847,37.467
2002-10-18 03:00,11.53,32.741,24.922,37.268
2002-10-18 04:00,11.60,32.729,24.900,37.319
2002-10-18 05:00,11.36,32.765,24.971,37.139
2002-10-18 06:00,11.38,32.758,24.962,37.150
2002-10-18 07:00,11.38,32.756,24.961,37.148
2002-10-18 08:00,11.21,32.804,25.029,37.043
2002-10-18 09:00,11.55,32.693,24.881,37.237
2002-10-18 10:00,11.97,32.587,24.722,37.508
2002-10-18 11:00,11.98,32.615,24.742,37.546
2002-10-18 12:00,12.29,32.526,24.615,37.734
2002-10-18 13:00,12.01,32.602,24.726,37.559
2002-10-18 14:00,12.05,32.582,24.703,37.575
2002-10-18 15:00,11.94,32.611,24.746,37.505
2002-10-18 16:00,11.97,32.613,24.742,37.535
2002-10-18 17:00,11.79,32.656,24.808,37.416
2002-10-18 18:00,11.71,32.655,24.823,37.343
2002-10-18 19:00,11.71,32.671,24.835,37.359
2002-10-18 20:00,11.44,32.735,24.934,37.181
2002-10-18 21:00,11.40,32.693,24.908,37.102
2002-10-18 22:00,11.52,32.726,24.912,37.244
2002-10-18 23:00,11.54,32.722,24.906,37.258
2002-10-19 00:00,11.41,32.751,24.952,37.170
2002-10-19 01:00,11.96,32.737,24.840,37.654
2002-10-19 02:00,12.19,32.742,24.801,37.868
2002-10-19 03:00,12.33,32.735,24.769,37.988
2002-10-19 04:00,12.27,32.756,24.796,37.955
2002-10-19 05:00,12.18,32.758,24.815,37.875
2002-10-19 06:00,12.15,32.742,24.808,37.831
2002-10-19 07:00,11.78,32.770,24.899,37.525
2002-10-19 08:00,11.74,32.758,24.897,37.476
2002-10-19 09:00,11.89,32.714,24.835,37.567
2002-10-19 10:00,11.76,32.764,24.898,37.500
2002-10-19 11:00,11.78,32.773,24.902,37.528
2002-10-19 12:00,11.89,32.769,24.878,37.623
2002-10-19 13:00,11.84,32.774,24.891,37.583
2002-10-19 14:00,11.92,32.742,24.852,37.623
2002-10-19 15:00,12.08,32.705,24.792,37.729
2002-10-19 16:00,11.93,32.750,24.856,37.640
2002-10-19 17:00,11.88,32.764,24.876,37.609
2002-10-19 18:00,11.82,32.778,24.898,37.569
2002-10-19 19:00,11.59,32.818,24.971,37.402
2002-10-19 20:00,11.55,32.840,24.996,37.388
2002-10-19 21:00,11.23,32.856,25.066,37.114
2002-10-19 22:00,11.46,32.813,24.991,37.279
2002-10-19 23:00,11.40,32.874,25.049,37.286
2002-10-20 00:00,11.48,32.868,25.030,37.353
2002-10-20 01:00,11.61,32.820,24.969,37.422
2002-10-20 02:00,11.62,32.899,25.029,37.512
2002-10-20 03:00,11.64,32.856,24.992,37.486
2002-10-20 04:00,11.57,32.850,25.000,37.416
2002-10-20 05:00,11.55,32.858,25.009,37.406
2002-10-20 06:00,11.55,32.914,25.053,37.463
2002-10-20 07:00,11.09,32.927,25.146,37.059
2002-10-20 08:00,10.59,32.920,25.229,36.601
2002-10-20 09:00,10.53,32.921,25.240,36.548
2002-10-20 10:00,11.42,32.951,25.105,37.383
2002-10-20 11:00,11.40,32.961,25.117,37.375
2002-10-20 12:00,11.30,32.906,25.092,37.228
2002-10-20 13:00,10.92,32.924,25.174,36.903
2002-10-20 14:00,11.02,32.938,25.167,37.007
2002-10-20 15:00,11.16,32.953,25.154,37.149
2002-10-20 16:00,11.21,32.877,25.085,37.117
2002-10-20 17:00,11.34,32.862,25.051,37.220
2002-10-20 18:00,11.13,32.903,25.120,37.071
2002-10-20 19:00,11.21,32.881,25.088,37.121
2002-10-20 20:00,10.79,32.946,25.214,36.807
2002-10-20 21:00,10.81,32.938,25.204,36.817
2002-10-20 22:00,10.57,32.969,25.270,36.632
2002-10-20 23:00,10.81,32.952,25.215,36.831
2002-10-21 00:00,10.95,32.944,25.184,36.950
2002-10-21 01:00,11.38,32.854,25.037,37.248
2002-10-21 02:00,11.58,32.741,24.913,37.314
2002-10-21 03:00,11.25,32.792,25.012,37.067
2002-10-21 04:00,11.00,32.890,25.134,36.941
2002-10-21 05:00,10.98,32.863,25.115,36.895
2002-10-21 06:00,10.86,32.919,25.180,36.843
2002-10-21 07:00,10.87,32.931,25.188,36.864
2002-10-21 08:00,10.70,32.951,25.233,36.731
2002-10-21 09:00,10.75,32.950,25.224,36.775
2002-10-21 10:00,10.78,32.939,25.210,36.791
2002-10-21 11:00,10.82,32.916,25.185,36.804
2002-10-21 12:00,11.04,32.887,25.124,36.974
2002-10-21 13:00,10.97,32.894,25.142,36.918
2002-10-21 14:00,11.22,32.860,25.071,37.109
2002-10-21 15:00,11.22,32.865,25.074,37.114
2002-10-21 16:00,11.53,32.846,25.004,37.376
2002-10-21 17:00,10.97,32.893,25.141,36.917
2002-10-21 18:00,11.22,32.876,25.083,37.125
2002-10-21 19:00,11.27,32.861,25.063,37.156
2002-10-21 20:00,10.87,32.927,25.185,36.860
2002-10-21 21:00,10.51,32.973,25.283,36.581
2002-10-21 22:00,10.47,32.947,25.270,36.519
2002-10-21 23:00,10.64,32.910,25.212,36.636
2002-10-22 00:00,10.48,32.941,25.263,36.522
2002-10-22 01:00,10.60,32.856,25.177,36.546
2002-10-22 02:00,10.58,32.864,25.187,36.536
2002-10-22 03:00,10.40,32.900,25.246,36.410
2002-10-22 04:00,10.64,32.870,25.181,36.596
2002-10-22 05:00,10.68,32.845,25.155,36.607
2002-10-22 06:00,11.11,32.857,25.088,37.007
2002-10-22 07:00,11.15,32.910,25.122,37.097
2002-10-22 08:00,10.74,32.922,25.204,36.738
2002-10-22 09:00,10.82,32.879,25.156,36.767
2002-10-22 10:00,10.49,32.881,25.215,36.472
2002-10-22 11:00,10.61,32.899,25.209,36.598
2002-10-22 12:00,10.79,32.917,25.191,36.778
2002-10-22 13:00,10.90,32.815,25.093,36.775
2002-10-22 14:00,10.89,32.878,25.143,36.829
2002-10-22 15:00,10.77,32.852,25.144,36.695
2002-10-22 16:00,10.93,32.831,25.100,36.818
2002-10-22 17:00,11.16,32.857,25.079,37.052
2002-10-22 18:00,11.32,32.821,25.022,37.160
2002-10-22 19:00,10.93,32.818,25.090,36.805
2002-10-22 20:00,10.90,32.822,25.098,36.782
2002-10-22 21:00,10.76,32.908,25.189,36.742
2002-10-22 22:00,10.59,32.943,25.247,36.624
2002-10-22 23:00,10.54,32.940,25.252,36.575
2002-10-23 00:00,10.55,32.951,25.259,36.595
2002-10-23 01:00,10.74,32.924,25.205,36.740
2002-10-23 02:00,10.74,32.911,25.195,36.727
2002-10-23 03:00,10.79,32.866,25.152,36.727
2002-10-23 04:00,11.05,32.860,25.101,36.956
2002-10-23 05:00,11.08,32.848,25.087,36.971
2002-10-23 06:00,11.12,32.851,25.082,37.010
2002-10-23 07:00,11.16,32.854,25.077,37.049
2002-10-23 08:00,10.81,32.883,25.161,36.762
2002-10-23 09:00,10.96,32.892,25.142,36.907
2002-10-23 10:00,10.59,32.918,25.227,36.599
2002-10-23 11:00,10.39,32.933,25.273,36.433
2002-10-23 12:00,10.44,32.923,25.256,36.468
2002-10-23 13:00,10.51,32.930,25.250,36.538
2002-10-23 14:00,10.82,32.832,25.120,36.720
2002-10-23 15:00,10.96,32.857,25.114,36.871
2002-10-23 16:00,11.36,32.828,25.020,37.203
2002-10-23 17:00,11.14,32.832,25.064,37.009
2002-10-23 18:00,11.28,32.863,25.063,37.167
2002-10-23 19:00,11.21,32.856,25.069,37.096
2002-10-23 20:00,10.85,32.894,25.163,36.809
2002-10-23 21:00,11.00,32.891,25.134,36.942
2002-10-23 22:00,10.77,32.930,25.205,36.773
2002-10-23 23:00,10.72,32.912,25.200,36.710
2002-10-24 00:00,10.49,32.942,25.262,36.532
2002-10-24 01:00,10.51,32.941,25.258,36.549
2002-10-24 02:00,11.13,32.864,25.090,37.032
2002-10-24 03:00,11.10,32.872,25.102,37.013
2002-10-24 04:00,11.14,32.850,25.077,37.027
2002-10-24 05:00,11.09,32.849,25.086,36.981
2002-10-24 06:00,11.42,32.855,25.031,37.285
2002-10-24 07:00,11.47,32.857,25.024,37.333
2002-10-24 08:00,11.11,32.821,25.060,36.970
2002-10-24 09:00,11.13,32.833,25.066,37.001
2002-10-24 10:00,10.95,32.863,25.121,36.868
2002-10-24 11:00,10.69,32.909,25.203,36.680
2002-10-24 12:00,10.46,32.914,25.246,36.477
2002-10-24 13:00,10.58,32.882,25.201,36.554
2002-10-24 14:00,10.87,32.856,25.130,36.789
2002-10-24 15:00,11.04,32.819,25.071,36.905
2002-10-24 16:00,10.96,32.837,25.099,36.851
2002-10-24 17:00,10.74,32.847,25.146,36.663
2002-10-24 18:00,10.91,32.837,25.108,36.806
2002-10-24 19:00,10.94,32.824,25.093,36.820
2002-10-24 20:00,11.32,32.844,25.041,37.184
2002-10-24 21:00,11.40,32.836,25.020,37.248
2002-10-24 22:00,11.27,32.788,25.005,37.081
2002-10-24 23:00,10.61,32.909,25.217,36.608
2002-10-25 00:00,10.37,32.953,25.292,36.435